Location: ???????????
(54.6970°N, 39.1477°E)
Time: 14:56:03
(UTC+00:00)

Meteor 1-10 Rocket - Pass Details

Date: 19 May 2025
Orbit: 833 x 910 km, 81.3° (Epoch: 21 June)

Event Time Altitude Azimuth Distance (km) Brightness Sun altitude
Exits shadow 20:12:00 15° 195° (SSW) 2,270 5.9 -13.9°
Maximum altitude 20:17:05 85° 283° (WNW) 909 4.4 -14.1°
Drops below altitude 10° 20:22:57 10° 13° (NNE) 2,561 7.7 -14.4°
Sets 20:25:23 0° 15° (NNE) 3,493 8.6 -14.4°
